Regional Weather Roundup
Issued by NWS Sioux Falls, SD

Home | Current Version | Previous Version | Text Only | Print | Product List | Glossary On
Versions: 1 2 3 4 5 6 7 8 9 10 11 12 13 14 15 16 17 18 19 20 21 22 23 24 25 26 27 28 29 30 31 32 33 34 35 36 37 38 39 40 41 42 43 44 45 46 47 48 49 50
000
ASUS43 KFSD 211510
RWRFSD

WEATHER ROUNDUP FOR SE SOUTH DAKOTA/SW MINNESOTA/NW IOWA
NATIONAL WEATHER SERVICE SIOUX FALLS SD
900 AM CST SUN JAN 21 2018

NOTE: "FAIR" INDICATES FEW OR NO CLOUDS BELOW 12,000 FEET WITH NO
SIGNIFICANT WEATHER AND OR OBSTRUCTIONS TO VISIBILITY.


SDZ038>040-050-052>070-211600-
SOUTHEAST SOUTH DAKOTA

CITY           SKY/WX    TMP DP  RH WIND       PRES   REMARKS
BROOKINGS      LGT RAIN  34  32  92 NE10      29.95R WCI  26
CHAMBERLAIN    MIX PCPN  34  34 100 NW9       29.98R WCI  26
HURON          LGT SNOW  32  31  96 NW5       29.98S VSB 1   WCI  27
MADISON        CLOUDY    36  36 100 NE16G23   29.93R
MITCHELL       CLOUDY    35  32  88 N13       29.96S WCI  26
SIOUX FALLS    CLOUDY    34  29  82 N7        29.93R WCI  28
WINNER         LGT SNOW  34  32  92 N12       29.97R VSB 1   WCI  25
YANKTON        CLOUDY    31  28  89 NE3       29.92R
$$

MNZ071-072-080-081-089-090-097-098-211600-
SOUTHWEST MINNESOTA

CITY           SKY/WX    TMP DP  RH WIND       PRES   REMARKS
FAIRMONT       CLOUDY    29  28  96 N9        29.94S WCI  20
JACKSON        CLOUDY    30  28  93 N9        29.93F WCI  22
LUVERNE        CLOUDY    32  28  86 NE9       29.92S WCI  24
MARSHALL       CLOUDY    33  29  85 CALM      29.97S
MONTEVIDEO     CLOUDY    34  28  80 CALM      29.98R
PIPESTONE      CLOUDY    34  28  80 NE10G16   29.92S WCI  26
REDWOOD FALLS  CLOUDY    33  30  88 CALM      29.97R
TRACY          CLOUDY    33  31  92 N5        29.95F WCI  28
WINDOM         CLOUDY    34  19  55 NE8       29.93F WCI  27
WORTHINGTON    CLOUDY    29  27  92 N10       29.92F WCI  20
$$

IAZ001>003-012>014-020>022-031-032-NEZ013-014-SDZ071-211600-
NORTHWEST IOWA

CITY           SKY/WX    TMP DP  RH WIND       PRES   REMARKS
CHEROKEE       CLOUDY    31  30  96 NE5       29.89S WCI  27
DENISON        CLOUDY    36  34  93 NE10      29.85S
ESTHERVILLE    CLOUDY    29  28  96 NE12      29.90F WCI  19
LE MARS        CLOUDY    30  28  93 N6        29.90R WCI  24
ORANGE CITY    CLOUDY    32  30  93 NE7       29.89R WCI  26
SHELDON        CLOUDY    34  30  86 NE16      29.87F WCI  23
SIOUX CITY     CLOUDY    33  29  85 NE8       29.88S WCI  26
SPENCER        CLOUDY    33  29  85 NE10      29.90F WCI  25
STORM LAKE     CLOUDY    32  30  93 NE15      29.86S WCI  22
$$

ABBREVIATIONS USED IN REMARKS
   TC - TEMPERATURE IN CELSIUS
  WCI - WIND CHILL INDEX
   HX - HEAT INDEX
  VSB - VISIBILITY





USA.gov is the U.S. government's official web portal to all federal, state and local government web resources and services.